{"data":{"norad_id":65478,"intl_designator":"2025-195W","name":"STARLINK-35093","alt_names":[],"object_type":"PAYLOAD","status":"ACTIVE","operator":null,"country":"US","launch_date":"2025-09-03","launch_site_code":"AFETR","launch_vehicle":null,"mission":null,"orbit_class":"UNKNOWN","rcs_meters":null,"size_class":null,"mass_kg":null,"dimensions":null,"purposes":["comms"],"wikipedia_slug":null,"has_3d_model":false,"image_url":null,"decayed_at":null,"tle_current":{"epoch":"2026-09-19T22:03:28.600128Z","epoch_age_seconds":162184,"freshness":"FRESH","line1":"1 65478U 25195W   26262.91908102  .00011632  00000+0  38583-3 0  9992","line2":"2 65478  53.1581  74.4028 0002163  38.2479 321.8675 15.31714169 59739","mean_motion":15.31714169,"eccentricity":0.0002163,"inclination_deg":53.1581,"raan_deg":74.4028,"arg_perigee_deg":38.2479,"mean_anomaly_deg":321.8675,"bstar":0.00038583,"rev_number":5973,"period_min":94.012318299577,"perigee_km":469.21635554127,"apogee_km":472.1791614578,"semimajor_km":6848.8347584995,"source":"CELESTRAK","updated_at":"2026-09-21T09:00:35.639025Z"}}}